Weather History for KAUM - December, 2011

Change the Weather History Date:

Wednesday, December 14, 2011

  Actual Average Record
Temperature  
Mean Temperature 37 °F -  
Max Temperature 41 °F 28 °F 53 °F (1998)
Min Temperature 33 °F 15 °F -13 °F (2010)
Degree Days  
Heating Degree Days 28    
Moisture  
Dew Point 37 °F    
Average Humidity 99    
Maximum Humidity 100    
Minimum Humidity 93    
Precipitation  
Precipitation 0.28 in - - ()
Sea Level Pressure  
Sea Level Pressure 29.80 in    
Wind  
Wind Speed 5 mph (SSE)    
Max Wind Speed 10 mph    
Max Gust Speed -    
Visibility 2 miles    
Events Fog , Rain , Snow    
Averages and records for this station are not official NWS values.
T = Trace of Precipitation, MM = Missing Value Source: NWS Daily Summary

Daily Weather History Graph

Daily Weather History Graph

Search for Another Location

Airport or City:

Trip Planner

Search our weather history database for the weather conditions in past years. The results will help you decide how hot, cold, wet, or windy it might be!

Date:

Astronomy

Dec. 14, 2011 Rise Set
Actual Time 7:37 AM CST 4:35 PM CST
Civil Twilight 7:04 AM CST 5:07 PM CST
Nautical Twilight 6:28 AM CST 5:44 PM CST
Astronomical Twilight 5:53 AM CST 6:19 PM CST
Moon 9:02 PM CST (12/14) 10:17 AM CST (12/14)
Length of Visible Light 10h 03m
Length of Day
8h 57m
Waning Gibbous, 83% of the Moon is Illuminated
Dec 14
Waning Gibbous
Dec 17
Last Quarter
Dec 24
New
Jan 1
First Quarter
Jan 9
Full

Hourly Weather History & Observations

Time (CST) Temp. Windchill Dew Point Humidity Pressure Visibility Wind Dir Wind Speed Gust Speed Precip Events Conditions
12:16 AM 35.6 °F 29.9 °F 33.8 °F 93% 30.06 in 1.8 mi SE 6.9 mph - N/A Rain Light Rain
12:36 AM 33.8 °F 25.8 °F 33.8 °F 100% 30.03 in 1.5 mi SE 10.4 mph - N/A   Drizzle
12:55 AM 35.6 °F 31.7 °F 35.6 °F 100% 30.04 in 3.0 mi SE 4.6 mph - N/A Rain Rain
1:16 AM 35.6 °F 31.7 °F 33.8 °F 93% 30.03 in 2.5 mi SE 4.6 mph - N/A Rain Rain
1:36 AM 35.6 °F - 33.8 °F 93% 30.04 in 2.5 mi Calm Calm - N/A   Light Drizzle
1:55 AM 35.6 °F 29.9 °F 33.8 °F 93% 30.00 in 2.5 mi ESE 6.9 mph - N/A Snow Light Snow
2:16 AM 35.6 °F 30.7 °F 33.8 °F 93% 30.01 in 2.5 mi SE 5.8 mph - N/A   Overcast
2:36 AM 35.6 °F 28.6 °F 33.8 °F 93% 29.99 in 0.8 mi SE 9.2 mph - N/A   Overcast
3:16 AM 35.6 °F 29.2 °F 35.6 °F 100% 29.97 in 0.2 mi SE 8.1 mph - N/A Fog Fog
3:36 AM 35.6 °F 30.7 °F 35.6 °F 100% 29.96 in 0.2 mi SE 5.8 mph - N/A   Light Drizzle
3:55 AM 35.6 °F - 35.6 °F 100% 29.97 in 0.2 mi Calm Calm - N/A Fog Fog
4:16 AM 35.6 °F 32.8 °F 35.6 °F 100% 29.96 in 0.2 mi SSE 3.5 mph - N/A Snow Light Snow
4:36 AM 35.6 °F 30.7 °F 35.6 °F 100% 29.95 in 0.2 mi SE 5.8 mph - N/A Snow Light Snow
4:55 AM 35.6 °F 28.6 °F 35.6 °F 100% 29.92 in 0.2 mi SE 9.2 mph - N/A Snow Light Snow
5:16 AM 35.6 °F 29.2 °F 35.6 °F 100% 29.92 in 0.2 mi SE 8.1 mph - N/A Snow Light Snow
5:36 AM 35.6 °F 30.7 °F 35.6 °F 100% 29.92 in 0.2 mi SSE 5.8 mph - N/A Snow Light Snow
5:55 AM 35.6 °F 30.7 °F 35.6 °F 100% 29.91 in 0.2 mi SSE 5.8 mph - N/A Snow Light Snow
6:16 AM 35.6 °F 29.9 °F 35.6 °F 100% 29.92 in 0.2 mi SSE 6.9 mph - N/A Snow Light Snow
6:36 AM 35.6 °F 30.7 °F 35.6 °F 100% 29.91 in 0.2 mi SSE 5.8 mph - N/A Snow Light Snow
6:55 AM 35.6 °F 31.7 °F 35.6 °F 100% 29.90 in 0.2 mi South 4.6 mph - N/A   Drizzle
7:16 AM 35.6 °F 31.7 °F 35.6 °F 100% 29.87 in 0.2 mi SE 4.6 mph - N/A   Overcast
7:36 AM 35.6 °F 30.7 °F 35.6 °F 100% 29.86 in 0.2 mi SE 5.8 mph - N/A   Overcast
7:55 AM 35.6 °F 32.8 °F 35.6 °F 100% 29.86 in 0.5 mi SSE 3.5 mph - N/A Fog Fog
8:16 AM 35.6 °F 30.7 °F 35.6 °F 100% 29.85 in 0.5 mi SE 5.8 mph - N/A Fog Fog
8:36 AM 35.6 °F 29.9 °F 35.6 °F 100% 29.84 in 0.2 mi SE 6.9 mph - N/A   Light Drizzle
9:16 AM 35.6 °F 31.7 °F 35.6 °F 100% 29.85 in 0.5 mi SE 4.6 mph - N/A   Light Drizzle
9:36 AM 35.6 °F 30.7 °F 35.6 °F 100% 29.83 in 0.2 mi SE 5.8 mph - N/A   Light Drizzle
9:56 AM 37.4 °F 32.8 °F 37.4 °F 100% 29.83 in 0.2 mi SSE 5.8 mph - N/A   Light Drizzle
10:16 AM 37.4 °F 32.8 °F 37.4 °F 100% 29.84 in 0.2 mi SSE 5.8 mph - N/A   Light Drizzle
10:36 AM 37.4 °F 32.8 °F 37.4 °F 100% 29.83 in 0.2 mi SSE 5.8 mph - N/A   Light Drizzle
10:56 AM 37.4 °F 32.1 °F 37.4 °F 100% 29.80 in 0.8 mi SSE 6.9 mph - N/A Rain Light Rain
11:16 AM 37.4 °F 33.8 °F 37.4 °F 100% 29.79 in 2.0 mi SSE 4.6 mph - N/A Rain Light Rain
11:36 AM 37.4 °F 32.8 °F 37.4 °F 100% 29.77 in 2.5 mi SSE 5.8 mph - 0.01 in Rain Light Rain
11:55 AM 37.4 °F 34.9 °F 37.4 °F 100% 29.76 in 4.0 mi South 3.5 mph - 0.03 in Rain Light Rain
12:16 PM 39.2 °F 34.2 °F 37.4 °F 93% 29.76 in 7.0 mi South 6.9 mph - 0.01 in   Drizzle
12:36 PM 39.2 °F 35.0 °F 39.2 °F 100% 29.73 in 2.0 mi South 5.8 mph - 0.01 in Rain Light Rain
12:55 PM 39.2 °F 35.0 °F 39.2 °F 100% 29.73 in 2.0 mi South 5.8 mph - 0.01 in   Drizzle
1:16 PM 39.2 °F - 39.2 °F 100% 29.71 in 0.8 mi Calm Calm - N/A   Drizzle
1:36 PM 39.2 °F 35.0 °F 39.2 °F 100% 29.70 in 0.2 mi South 5.8 mph - N/A Rain Light Rain
1:56 PM 39.2 °F 35.0 °F 39.2 °F 100% 29.67 in 0.2 mi SE 5.8 mph - N/A Rain Rain
2:16 PM 39.2 °F 35.0 °F 39.2 °F 100% 29.67 in 0.2 mi SSE 5.8 mph - N/A   Light Drizzle
2:36 PM 39.2 °F 35.9 °F 39.2 °F 100% 29.67 in 0.2 mi South 4.6 mph - N/A Rain Light Rain
2:56 PM 41.0 °F 39.0 °F 41.0 °F 100% 29.66 in 0.2 mi South 3.5 mph - N/A Rain Rain
3:16 PM 41.0 °F - 41.0 °F 100% 29.66 in 0.2 mi Calm Calm - 0.01 in Rain Light Rain
3:36 PM 41.0 °F 35.2 °F 41.0 °F 100% 29.68 in 0.5 mi WNW 9.2 mph - 0.02 in Rain Rain
3:55 PM 41.0 °F 39.0 °F 41.0 °F 100% 29.65 in 7.0 mi NE 3.5 mph - 0.07 in Rain Rain
4:16 PM 39.2 °F - 39.2 °F 100% 29.65 in 7.0 mi Calm Calm - N/A Rain Light Rain
4:36 PM 39.2 °F 35.9 °F 39.2 °F 100% 29.63 in 4.0 mi East 4.6 mph - N/A Rain Light Rain
4:55 PM 39.2 °F - 39.2 °F 100% 29.65 in 4.0 mi Calm Calm - 0.03 in Rain Rain
5:16 PM 39.2 °F 35.9 °F 39.2 °F 100% 29.64 in 4.0 mi SE 4.6 mph - 0.04 in Rain Light Rain
5:35 PM 39.2 °F 35.9 °F 39.2 °F 100% 29.62 in 10.0 mi ESE 4.6 mph - 0.10 in Rain Light Rain
5:55 PM 41.0 °F - 41.0 °F 100% 29.62 in 7.0 mi Calm Calm - 0.12 in Rain Rain
6:16 PM 39.2 °F - 39.2 °F 100% 29.63 in 7.0 mi Calm Calm - N/A   Drizzle
6:35 PM 39.2 °F - 39.2 °F 100% 29.61 in 3.0 mi Calm Calm - N/A   Drizzle
6:55 PM 39.2 °F - 39.2 °F 100% 29.62 in 3.0 mi Calm Calm - 0.01 in   Overcast
7:16 PM 39.2 °F - 39.2 °F 100% 29.62 in 3.0 mi Calm Calm - N/A   Overcast
7:36 PM 39.2 °F - 39.2 °F 100% 29.61 in 1.8 mi Calm Calm - N/A   Overcast
7:56 PM 39.2 °F - 39.2 °F 100% 29.62 in 0.8 mi Calm Calm - N/A   Drizzle
8:16 PM 39.2 °F - 39.2 °F 100% 29.62 in 0.5 mi Calm Calm - N/A   Light Drizzle
8:35 PM 39.2 °F 37.0 °F 39.2 °F 100% 29.61 in 2.0 mi West 3.5 mph - N/A   Heavy Drizzle
8:55 PM 41.0 °F 35.8 °F 41.0 °F 100% 29.61 in 3.0 mi West 8.1 mph - 0.01 in Rain Rain
9:16 PM 41.0 °F 35.2 °F 41.0 °F 100% 29.61 in 4.0 mi WNW 9.2 mph - N/A Rain Rain
9:35 PM 41.0 °F 34.7 °F 41.0 °F 100% 29.61 in 5.0 mi WNW 10.4 mph - N/A   Overcast
9:56 PM 39.2 °F 31.6 °F 39.2 °F 100% 29.61 in 7.0 mi WNW 12.7 mph 17.3 mph N/A   Light Drizzle
10:16 PM 39.2 °F 30.2 °F 39.2 °F 100% 29.62 in 10.0 mi WNW 17.3 mph 23.0 mph N/A   Overcast
10:35 PM 39.2 °F 30.8 °F 39.2 °F 100% 29.62 in 5.0 mi WNW 15.0 mph 23.0 mph N/A   Overcast
10:56 PM 39.2 °F 31.2 °F 39.2 °F 100% 29.64 in 2.5 mi WNW 13.8 mph 18.4 mph N/A   Overcast
11:16 PM 39.2 °F 30.8 °F 39.2 °F 100% 29.64 in 4.0 mi WNW 15.0 mph 20.7 mph N/A   Light Drizzle
11:35 PM 39.2 °F 32.0 °F 37.4 °F 93% 29.65 in 5.0 mi WNW 11.5 mph - N/A   Overcast
11:56 PM 37.4 °F 27.2 °F 37.4 °F 100% 29.66 in 7.0 mi WNW 19.6 mph - N/A   Overcast